Location: Partizánske
(48.6285°N, 18.3769°E)
Time: 01:23:49
(UTC+02:00)

A-11 Canister half - All Passes

Search period start: 25 June 2022 00:00
Search period end: 05 July 2022 00:00
Orbit: 1527 x 1681 km, 47.3° (Epoch: 24 June)

Date Brightness Start Highest point End Pass type
(mag) Time Alt. Az. Time Alt. Az. Time Alt. Az.
25 Jun - 02:04:27 10° W 02:12:11 31° SW 02:20:01 10° SSE visible
25 Jun - 17:26:28 10° S 17:33:38 25° SE 17:40:39 10° E daylight
25 Jun - 19:28:00 10° SW 19:37:13 59° SSE 19:46:17 10° ENE daylight
25 Jun - 21:32:28 10° W 21:41:53 83° S 21:51:13 10° E visible
25 Jun - 23:37:28 10° W 23:46:42 68° SSW 23:55:57 10° ESE visible
26 Jun - 01:42:43 10° W 01:50:35 32° SW 01:58:32 10° SSE visible
26 Jun - 17:05:04 10° S 17:12:03 23° SE 17:18:54 10° E daylight
26 Jun - 19:06:23 10° SW 19:15:35 58° SSE 19:24:38 10° ENE daylight
26 Jun - 21:10:47 10° W 21:20:13 83° S 21:29:33 10° E daylight
26 Jun - 23:15:48 10° W 23:25:03 70° SSW 23:34:18 10° ESE visible
27 Jun - 01:21:00 10° WNW 01:29:00 34° SW 01:37:02 10° SSE visible
27 Jun - 16:43:40 10° S 16:50:27 22° SE 16:57:06 10° E daylight
27 Jun - 18:44:45 10° SW 18:53:57 56° SSE 19:02:58 10° ENE daylight
27 Jun - 20:49:05 10° W 20:58:33 83° S 21:07:53 10° E daylight
27 Jun - 22:54:06 10° W 23:03:24 71° SSW 23:12:39 10° ESE visible
28 Jun - 00:59:17 10° WNW 01:07:24 35° SW 01:15:32 10° SSE visible
28 Jun - 16:22:19 10° S 16:28:52 21° SE 16:35:18 10° E daylight
28 Jun - 18:23:07 10° SW 18:32:18 54° SSE 18:41:17 10° ENE daylight
28 Jun - 20:27:24 10° W 20:36:53 82° S 20:46:12 10° E daylight
28 Jun - 22:32:26 10° W 22:41:44 73° SSW 22:51:00 10° ESE visible
29 Jun - 00:37:35 10° WNW 00:45:47 37° SW 00:54:02 10° SSE visible
29 Jun - 16:00:58 10° S 16:07:17 20° SE 16:13:29 10° E daylight
29 Jun - 18:01:31 10° SW 18:10:40 53° SSE 18:19:37 10° ENE daylight
29 Jun - 20:05:43 10° WSW 20:15:12 82° S 20:24:32 10° E daylight
29 Jun - 22:10:45 10° W 22:20:05 74° SSW 22:29:21 10° ESE visible
30 Jun - 00:15:52 10° WNW 00:24:11 38° SW 00:32:31 10° SSE visible
30 Jun - 02:26:00 10° WSW 02:26:57 10° WSW 02:27:54 10° SW visible
30 Jun - 15:39:39 10° SSE 15:45:42 19° SE 15:51:39 10° E daylight
30 Jun - 17:39:54 10° SW 17:49:02 51° SSE 17:57:57 10° ENE daylight
30 Jun - 19:44:01 10° WSW 19:53:32 81° S 20:02:52 10° E daylight
30 Jun - 21:49:03 10° W 21:58:26 75° SSW 22:07:42 10° ESE visible
30 Jun - 23:54:10 10° WNW 00:02:35 40° SW 00:11:00 10° SSE visible
01 Jul - 02:03:02 10° WSW 02:05:24 11° WSW 02:07:47 10° SW visible
01 Jul - 15:18:22 10° SSE 15:24:07 18° SE 15:29:47 10° E daylight
01 Jul - 17:18:18 10° SW 17:27:24 49° SSE 17:36:17 10° ENE daylight
01 Jul - 19:22:20 10° WSW 19:31:52 80° S 19:41:11 10° E daylight
01 Jul - 21:27:22 10° W 21:36:46 76° SSW 21:46:03 10° ESE visible
01 Jul - 23:32:28 10° WNW 23:40:58 41° SW 23:49:27 10° SSE visible
02 Jul - 01:40:39 10° WSW 01:43:51 12° WSW 01:47:03 10° SW visible
02 Jul - 14:57:06 10° SSE 15:02:33 17° SE 15:07:53 10° E daylight
02 Jul - 16:56:42 10° SW 17:05:46 48° SSE 17:14:36 10° ENE daylight
02 Jul - 19:00:38 10° WSW 19:10:11 80° S 19:19:32 10° E daylight
02 Jul - 21:05:41 10° W 21:15:06 77° SSW 21:24:23 10° ESE daylight
02 Jul - 23:10:46 10° WNW 23:19:21 43° SW 23:27:55 10° SSE visible
03 Jul - 01:18:29 10° W 01:22:18 13° SW 01:26:08 10° SSW visible
03 Jul - 14:35:53 10° SSE 14:40:58 16° SE 14:45:58 10° E daylight
03 Jul - 16:35:06 10° SW 16:44:07 46° SE 16:52:55 10° ENE daylight
03 Jul - 18:38:56 10° WSW 18:48:31 79° SSE 18:57:52 10° E daylight
03 Jul - 20:43:59 10° W 20:53:26 78° SSW 21:02:44 10° ESE daylight
03 Jul - 22:49:03 10° WNW 22:57:44 45° SW 23:06:22 10° SSE visible
04 Jul - 00:56:24 10° W 01:00:44 14° SW 01:05:05 10° SSW visible
04 Jul - 14:14:44 10° SSE 14:19:23 15° SE 14:23:59 10° E daylight
04 Jul - 16:13:30 10° SSW 16:22:30 45° SE 16:31:15 10° ENE daylight
04 Jul - 18:17:15 10° WSW 18:26:51 78° SSE 18:36:11 10° E daylight
04 Jul - 20:22:17 10° W 20:31:46 79° SSW 20:41:05 10° ESE daylight
04 Jul - 22:27:22 10° WNW 22:36:07 46° SW 22:44:48 10° SE visible
